TimeCST,TemperatureF,Dew PointF,Humidity,Sea Level PressureIn,VisibilityMPH,Wind Direction,Wind SpeedMPH,Gust SpeedMPH,PrecipitationIn,Events,Conditions,WindDirDegrees,DateUTC
12:53 AM,54.0,50.0,86,30.07,10.0,SW,11.5,-,N/A,,Mostly Cloudy,220,2012-11-19 06:53:00
1:53 AM,52.0,48.9,89,30.06,8.0,WSW,9.2,-,N/A,,Scattered Clouds,250,2012-11-19 07:53:00
2:53 AM,50.0,48.0,93,30.06,7.0,WSW,8.1,-,N/A,,Partly Cloudy,240,2012-11-19 08:53:00
3:53 AM,46.9,46.0,97,30.07,5.0,WSW,5.8,-,N/A,,Partly Cloudy,250,2012-11-19 09:53:00
4:53 AM,44.1,43.0,96,30.09,3.0,WSW,6.9,-,N/A,,Clear,250,2012-11-19 10:53:00
5:18 AM,44.6,42.8,93,30.15,2.5,WSW,6.9,-,N/A,,Clear,250,2012-11-19 11:18:00
5:48 AM,44.6,42.8,93,30.15,3.0,WSW,6.9,-,N/A,,Clear,240,2012-11-19 11:48:00
5:53 AM,44.1,43.0,96,30.09,3.0,WSW,6.9,-,N/A,,Clear,240,2012-11-19 11:53:00
6:53 AM,43.0,43.0,100,30.10,4.0,WSW,4.6,-,N/A,,Scattered Clouds,250,2012-11-19 12:53:00
7:53 AM,43.0,42.1,97,30.12,7.0,WSW,6.9,-,N/A,,Mostly Cloudy,250,2012-11-19 13:53:00
8:53 AM,50.0,46.0,86,30.11,10.0,West,9.2,-,N/A,,Mostly Cloudy,270,2012-11-19 14:53:00
9:53 AM,57.0,46.0,67,30.12,10.0,WNW,12.7,-,N/A,,Mostly Cloudy,290,2012-11-19 15:53:00
10:53 AM,64.0,43.0,46,30.11,10.0,WNW,11.5,-,N/A,,Clear,290,2012-11-19 16:53:00
11:53 AM,68.0,39.9,36,30.09,10.0,WNW,13.8,18.4,N/A,,Scattered Clouds,290,2012-11-19 17:53:00
12:53 PM,72.0,32.0,23,30.05,10.0,West,16.1,24.2,N/A,,Scattered Clouds,270,2012-11-19 18:53:00
1:53 PM,73.0,30.0,20,30.03,10.0,West,12.7,-,N/A,,Scattered Clouds,270,2012-11-19 19:53:00
2:53 PM,73.9,27.0,18,30.01,10.0,WSW,13.8,26.5,N/A,,Scattered Clouds,250,2012-11-19 20:53:00
3:53 PM,72.0,25.0,17,30.03,10.0,WNW,15.0,-,N/A,,Mostly Cloudy,300,2012-11-19 21:53:00
4:53 PM,70.0,28.0,21,30.05,10.0,NNW,9.2,-,N/A,,Scattered Clouds,330,2012-11-19 22:53:00
5:53 PM,62.1,25.0,24,30.09,9.0,NW,8.1,-,N/A,,Scattered Clouds,310,2012-11-19 23:53:00
6:53 PM,55.9,21.9,27,30.12,10.0,NNW,5.8,-,N/A,,Scattered Clouds,340,2012-11-20 00:53:00
7:53 PM,55.0,23.0,29,30.13,10.0,NW,6.9,-,N/A,,Partly Cloudy,320,2012-11-20 01:53:00
8:53 PM,51.1,24.1,35,30.13,10.0,WNW,4.6,-,N/A,,Clear,300,2012-11-20 02:53:00
9:53 PM,50.0,23.0,35,30.12,10.0,NNW,6.9,-,N/A,,Clear,330,2012-11-20 03:53:00
10:53 PM,46.0,23.0,40,30.12,10.0,North,8.1,-,N/A,,Clear,360,2012-11-20 04:53:00
11:53 PM,43.0,24.1,47,30.14,10.0,NNW,4.6,-,N/A,,Clear,330,2012-11-20 05:53:00